Regional Weather Roundup
Issued by NWS

Home | Current Version | Previous Version | Text Only | Print | Product List | Glossary On
Versions: 1 2 3 4 5 6 7 8 9 10 11 12 13 14 15 16 17 18 19 20 21 22 23 24 25 26 27 28 29 30 31 32 33 34 35 36 37 38 39 40 41 42 43 44 45 46 47 48 49 50
769
ASUS44 KJAN 201210
RWRMS

MISSISSIPPI HOURLY WEATHER ROUNDUP
NATIONAL WEATHER SERVICE JACKSON MS
700 AM CDT SUN APR 20 2014

NOTE: "FAIR: INDICATES FEW OR NO CLOUDS BELOW 12,000 FEET WITH NO
SIGNIFICANT WEATHER AND/OR OBSTRUCTIONS TO VISIBILITY.

MSZ001>002-007>008-010>013-018>021-025>028-034>036-201300-
NORTHWEST MISSISSIPPI

CITY           SKY/WX    TMP DP  RH WIND       PRES   REMARKS
CLARKSDALE       N/A     50  50 100 CALM      30.19R
CLEVELAND      FAIR      53  50  91 N3        30.17S
GREENWOOD      CLEAR     50  46  86 E7        30.19R
6HR MIN TEMP:  48; 6HR MAX TEMP:  53;

GREENVILLE     CLEAR     52  49  89 CALM      30.17R
6HR MIN TEMP:  52; 6HR MAX TEMP:  60;

GRENADA        FAIR      46  45  93 CALM      30.20R
OLIVE BRANCH   PTCLDY    54  45  71 CALM      30.20R
OXFORD         FAIR      48  45  87 CALM      30.22R
TUNICA         SUNNY     48  46  93 CALM      30.19R FOG
$$

MSZ003>006-009-014>017-022>024-029>033-037>039-201300-
NORTHEAST MISSISSIPPI

CITY           SKY/WX    TMP DP  RH WIND       PRES   REMARKS
BELMONT        FAIR      45  44  97 CALM      30.23R
COLUMBUS AFB   CLEAR     46  46  99 NW2       30.24R
6HR MIN TEMP:  45; 6HR MAX TEMP:  52;

CORINTH        FAIR      46  45  93 CALM      30.23R
GOLDN TRIANGLE CLEAR     48  43  81 CALM      30.25R
STARKVILLE     FAIR      46  45  93 CALM      30.22R
TUPELO         CLEAR     50  46  86 CALM      30.23R
6HR MIN TEMP:  47; 6HR MAX TEMP:  53;

$$

MSZ040-058-201300-
CENTRAL MISSISSIPPI

CITY           SKY/WX    TMP DP  RH WIND       PRES   REMARKS
JACKSON INTL   PTCLDY    50  49  96 E6        30.20R
6HR MIN TEMP:  49; 6HR MAX TEMP:  55;

JACKSON HAWKNS CLEAR     52  49  89 CALM      30.19R FOG
6HR MIN TEMP:  52; 6HR MAX TEMP:  58;

MERIDIAN KEY   CLEAR     48  47  96 CALM      30.22R
6HR MIN TEMP:  46; 6HR MAX TEMP:  51;

MERIDIAN NAS   CLEAR     47  45  93 NW3       30.23R
6HR MIN TEMP:  46; 6HR MAX TEMP:  53;

RAYMOND        FAIR      48  43  81 CALM      30.19R HAZE
VICKSBURG      FOG       56  56 100 CALM      30.18R VSB 3/4
6HR MIN TEMP:  55; 6HR MAX TEMP:  61;

$$

MSZ059>079-201300-
SOUTH MISSISSIPPI

CITY           SKY/WX    TMP DP  RH WIND       PRES   REMARKS
BROOKHAVEN     FAIR      48  48 100 CALM      30.20R FOG
COLUMBIA       FAIR      46  46 100 MISG      30.19R
HATTIESBURG    CLEAR     50  48  93 CALM      30.20R
6HR MIN TEMP:  49; 6HR MAX TEMP:  55;

MCCOMB         CLEAR     51  48  89 CALM      30.18R
6HR MIN TEMP:  50; 6HR MAX TEMP:  63;

NATCHEZ        CLEAR     52  46  82 CALM      30.16S
6HR MIN TEMP:  52; 6HR MAX TEMP:  55;

PINE BELT      CLEAR     52  46  82 NE3       30.21R
6HR MIN TEMP:  48; 6HR MAX TEMP:  55;

$$

MSZ080>082-201300-
COASTAL MISSISSIPPI

CITY           SKY/WX    TMP DP  RH WIND       PRES   REMARKS
BAY ST LOUIS   CLEAR    N/A N/A N/A CALM      30.18
BILOXI         CLEAR     59  54  84 N2        30.18R
6HR MIN TEMP:  56; 6HR MAX TEMP:  62;

PASCAGOULA     CLEAR     52  52 100 N3        30.17R FOG
6HR MIN TEMP:  50; 6HR MAX TEMP:  58;

GULFPORT       CLEAR     60  54  80 E3        30.17R
6HR MIN TEMP:  56; 6HR MAX TEMP:  62;

$$



USA.gov is the U.S. government's official web portal to all federal, state and local government web resources and services.